Regional Weather Roundup
Issued by NWS Jackson, KY

Home | Current Version | Previous Version | Graphics & Text | Print | Product List | Glossary On
Versions: 1 2 3 4 5 6 7 8 9 10 11 12 13 14 15 16 17 18 19 20 21 22 23 24 25 26 27 28 29 30 31 32 33 34 35 36 37 38 39 40 41 42 43 44 45 46 47 48 49 50
000
ASUS43 KJKL 242310
RWRJKL

EAST KENTUCKY HOURLY WEATHER ROUNDUP
NATIONAL WEATHER SERVICE JACKSON KY
700 PM EDT SAT SEP 24 2016

NOTE: "FAIR" INDICATES FEW OR NO CLOUDS BELOW 12,000 FEET WITH
NO SIGNIFICANT WEATHER AND/OR OBSTRUCTIONS TO VISIBILITY.

* THESE REPORTS ARE NOT UNDER NWS QUALITY CONTROL AND MAY NOT
  REPORT WEATHER SUCH AS PRECIPITATION AND FOG.

KYZ079-080-083-085-087-088-110-112-115-119-120-250000
...EASTERN KENTUCKY...

CITY           SKY/WX    TMP DP  RH WIND       PRES   REMARKS
JACKSON        CLEAR     83  62  49 VRB3      30.11R
LONDON         CLEAR     83  62  49 NE3       30.10S
SOMERSET*      CLEAR     82  61  47 CALM      30.10S
MONTICELLO*    CLEAR     84  65  52 N12       30.10S
WILLIAMSBURG*  CLEAR     82  64  54 N6        30.10S
MIDDLESBORO*   CLEAR     82  65  56 CALM      30.10S
HARLAN APT*    CLEAR     81  61  50 CALM      30.12S
PIKE CO APT*     N/A     81  64  54 N5        30.11S
BIG SANDY APT* CLEAR     83  63  51 N3        30.10S
MOREHEAD APT*  CLEAR     82  64  54 VRB3      30.11S
ASHLAND*       CLEAR     82  70  65 CALM      30.07S
$$

KYZ035-036-041-042-044-050-067-078-099-250000
...CENTRAL KENTUCKY...

CITY           SKY/WX    TMP DP  RH WIND       PRES   REMARKS
MT STERLING*   PTCLDY    82  66  57 NE3       30.11R
FLEMING/MASON* CLEAR     80  65  59 NE6       30.11S
DANVILLE*      CLEAR     82  64  54 CALM      30.10S
LEXINGTON      CLEAR     84  63  49 N7        30.09R
FRANKFORT      CLEAR     86  65  49 N6        30.08R
LOUISVILLE     PTCLDY    88  59  37 NE7       30.06R
LEBANON*         N/A     82  64  54 CALM      30.09R
GLASGOW*       CLEAR     83  66  56 CALM      30.08S
BOWLING GREEN  CLEAR     86  66  51 NE5       30.07S
$$

KYZ091>093-OHZ055-061-077-WVZ005-015-034-035-042-250000
...SOUTHERN OHIO/WEST VIRGINIA...

CITY           SKY/WX    TMP DP  RH WIND       PRES   REMARKS
COVINGTON      CLEAR     81  67  62 NE10      30.11S
COLUMBUS       PTCLDY    76  61  59 N6        30.12S
DAYTON         PTCLDY    76  63  64 NE6       30.14F
WILMINGTON     CLEAR     76  64  66 NE10      30.12S
HUNTINGTON     CLEAR     83  64  52 N8        30.08R
CHARLESTON     PTCLDY    83  62  49 N7        30.09R
PINEVILLE*     PTCLDY    74  64  72 MISG      30.17S
BECKLEY        MOCLDY    77  61  57 N5        30.17R
BLUEFIELD      CLEAR     76  59  55 NW5       30.19S
LOGAN CO APT*    N/A     81  64  57 CALM      30.11S
$$

VAZ002-007-008-TNZ017-027-036-066-071-250000
...SOUTHWEST VIRGINIA/EAST TENNESSEE...

CITY           SKY/WX    TMP DP  RH WIND       PRES   REMARKS
WISE*          CLEAR     79  52  38 CALM      30.19S
JONESVILLE*      N/A     82  63  51 CALM      30.12S
ABINGDON*      CLEAR     83  58  42 CALM      30.14S
BRISTOL        PTCLDY    80  62  54 N3        30.10R
MORRISTOWN*    CLEAR     86  61  42 N6        30.08S
SEVIERVILLE*   CLOUDY    88  59  37 CALM      30.06R
KNOXVILLE      PTCLDY    89  58  34 N5        30.05S
OAK RIDGE      CLEAR     88  62  41 NE3       30.07S
CROSSVILLE     CLEAR     82  62  50 N5        30.13R
NASHVILLE      PTCLDY    88  60  38 N8        30.06S
$$

...KEY TO REMARKS...
VSB - VISIBILITY IN MILES
WCI - WIND CHILL INDEX
HX  - HEAT INDEX

$$



USA.gov is the U.S. government's official web portal to all federal, state and local government web resources and services.